STARLINK-4207, 52871

Orbit data source: Space-Track

STARLINK-4207, 52871 is a payload satellite owned by SpaceX/Seattle (US) in LEO that was launched on Fri, 17 Jun 2022 UTC via an FALCON 9 launch vehicle from the Air Force Eastern Test Range (AFETR). Payload-class satellites include a variety of spacecraft equipped with specific instruments for various scientific and technological missions. These include communications satellites like Starlink; space stations such as the ISS; scientific satellites like the Hubble; Earth observation satellites from companies like Planet Labs, Umbra, and HawkEye 360; GPS; miniature CubeSats for education and research; and military/defense satellites.

Loading next visibility...
Identifier
52871, 2022-062AT
Orbit
LEO
Country
Flag of USUS
Related business
Manufacturer
SpaceX/Seattle
Mission
Operational Commercial Communications
Bus & Motor
STARLINK, Unknown motor
Mass
297 kg wet, ~275 kg dry
Launch date (UTC)
2022-06-17 (3 years ago)
Launch vehicle
FALCON 9
Launch site
Air Force Eastern Test Range (AFETR)
Object type
Payload
Rocket body
Debris
Shape & HBR
Box + 1 Pan, 10.1 m
Radar Cross Section
13.562 m², Large (>1 m²)

Expand to show TLE details & history
Last TLE update: 1 day ago

TLE from 1 day ago
0 STARLINK-4207
1 52871U 22062AT  25348.31330718  .00001959  00000-0  14120-3 0  9998
2 52871  53.2186  37.3903 0001199 102.3699 257.7428 15.08827615193174
Epoch: 2025-12-14T07:31Z
TLE epoch observation values (Epoch: 2025-12-14T07:31:09.740Z)
Latitude
0.00003°
Longitude
-158.62828°
Altitude
540.855 km
Speed
7.593 km/s
True Right ascension
02h 29m 33s
True Declination
0° 00' 00"
Sunlit
Object was in full shadow at epoch
Visualization orbit readout
Latitude
Unknown
Longitude
Unknown
Altitude
Unknown
Speed
Unknown
Apparent Right ascension
Unknown
Apparent Declination
Unknown
Sunlit
N/A
Visualization observer readout
Local Sidereal Time
13:18:57
Azimuth
Unknown
Elevation
Unknown
Doppler factor
Unknown
Orbital elements
Apogee altitude
540.855 km
Perigee altitude
539.197 km
Semi-major axis
6,918.163 km
Eccentricity
0.00012
Inclination
53.2186°
RAAN
37.3903°
Arg. of periapsis
102.3699°
True anomaly
257.72937°
Mean anomaly
257.7428°
Eccentric anomaly
257.73609°
Mean motion
3.77187 °/min
Orbital period
95.44 mins
BSTAR
0.0001412
Loading maneuver chart data...
Computing Atmospheric mass density...
Loading historical data...
Loading historical data...
Loading historical data...
Loading historical data...
Loading historical data...
Loading historical data...
Loading historical data...

Documentation

Showing up to 5 results
|